STARLINK-6337, 56528

Orbit data source: Space-Track

STARLINK-6337, 56528 is a payload satellite owned by SpaceX/Seattle (US) in LEO that was launched on Sun, 14 May 2023 UTC via an FALCON 9 launch vehicle from the Air Force Eastern Test Range (AFETR). Payload-class satellites include a variety of spacecraft equipped with specific instruments for various scientific and technological missions. These include communications satellites like Starlink; space stations such as the ISS; scientific satellites like the Hubble; Earth observation satellites from companies like Planet Labs, Umbra, and HawkEye 360; GPS; miniature CubeSats for education and research; and military/defense satellites.

Loading next visibility...
Identifier
56528, 2023-065AB
Orbit
LEO
Country
Flag of USUS
Related business
Manufacturer
SpaceX/Seattle
Mission
Operational Commercial Communications
Bus & Motor
STARLINK, Unknown motor
Mass
305 kg wet, ~290 kg dry
Launch date (UTC)
2023-05-14 (3 years ago)
Launch vehicle
FALCON 9
Launch site
Air Force Eastern Test Range (AFETR)
Object type
Payload
Rocket body
Debris
Shape & HBR
Box + 1 Pan, 10.1 m
Radar Cross Section
11.087 m², Large (>1 m²)

Expand to show TLE details & history
Last TLE update: 3 days ago

TLE from 3 days ago
0 STARLINK-6337
1 56528U 23065AB  26170.59702252  .00001901  00000-0  78638-4 0  9997
2 56528  43.0054   0.4833 0001689 280.9366  79.1296 15.27559839172143
Epoch: 2026-06-19T14:19Z
TLE epoch observation values (Epoch: 2026-06-19T14:19:42.745Z)
Latitude
-0°
Longitude
-122.26853°
Altitude
482.667 km
Speed
7.626 km/s
True Right ascension
00h 01m 55s
True Declination
0° 00' 00"
Sunlit
Object was in daylight at epoch
Visualization orbit readout
Latitude
Unknown
Longitude
Unknown
Altitude
Unknown
Speed
Unknown
Apparent Right ascension
Unknown
Apparent Declination
Unknown
Sunlit
N/A
Visualization observer readout
Local Sidereal Time
21:24:19
Azimuth
Unknown
Elevation
Unknown
Doppler factor
Unknown
Orbital elements
Apogee altitude
486.213 km
Perigee altitude
483.895 km
Semi-major axis
6,863.191 km
Eccentricity
0.00017
Inclination
43.0054°
RAAN
0.4833°
Arg. of periapsis
280.9366°
True anomaly
79.14861°
Mean anomaly
79.1296°
Eccentric anomaly
79.1391°
Mean motion
3.81728 °/min
Orbital period
94.31 mins
BSTAR
0.000078638
Loading maneuver chart data...
Computing Atmospheric mass density...
Loading historical data...
Loading historical data...
Loading historical data...
Loading historical data...
Loading historical data...
Loading historical data...
Loading historical data...

Documentation

Showing up to 5 results
|